Weather History for KJFZ - September, 2013

Change the Weather History Date:

Friday, September 20, 2013

  Actual Average (KBLF) Record (KBLF)
Temperature  
Mean Temperature 72 °F 64 °F  
Max Temperature 79 °F 73 °F 86 °F (1998)
Min Temperature 64 °F 56 °F 40 °F (1991)
Degree Days  
Heating Degree Days 0 3  
Month to date heating degree days 29  
Since 1 July heating degree days 35  
Cooling Degree Days 6 3  
Month to date cooling degree days 81  
Year to date cooling degree days 815  
Growing Degree Days 22 (Base 50)    
Moisture  
Dew Point 64 °F    
Average Humidity 81    
Maximum Humidity 94    
Minimum Humidity 59    
Precipitation  
Precipitation 0.06 in 0.11 in 0.37 in (1970)
Month to date precipitation 2.08  
Year to date precipitation 30.47  
Snow  
Snow 0.00 in - - ()
Month to date snowfall  
Since 1 July snowfall  
Since 1 September snowfall  
Snow Depth -    
Sea Level Pressure  
Sea Level Pressure 30.09 in    
Wind  
Wind Speed 3 mph (SW)    
Max Wind Speed 9 mph    
Max Gust Speed -    
Visibility 8 miles    
Events Fog , Rain    
T = Trace of Precipitation, MM = Missing Value Source: NWS Daily Summary

Daily Weather History Graph

Daily Weather History Graph

Search for Another Location

Airport or City:

Trip Planner

Search our weather history database for the weather conditions in past years. The results will help you decide how hot, cold, wet, or windy it might be!

Date:

Astronomy

Sep. 20, 2013 Rise Set
Actual Time 7:13 AM EDT 7:26 PM EDT
Civil Twilight 6:47 AM EDT 7:52 PM EDT
Nautical Twilight 6:17 AM EDT 8:23 PM EDT
Astronomical Twilight 5:46 AM EDT 8:53 PM EDT
Moon 8:03 PM EDT (9/20) 8:24 AM EDT (9/20)
Length of Visible Light 13h 05m
Length of Day
12h 13m
Full, 98% of the Moon is Illuminated
Sep 20
Full
Sep 26
Last Quarter
Oct 4
New
Oct 11
First Quarter
Oct 18
Full

Hourly Weather History & Observations

Time (EDT) Temp. Dew Point Humidity Pressure Visibility Wind Dir Wind Speed Gust Speed Precip Events Conditions
12:15 AM 65.8 °F 63.5 °F 92% 30.16 in 5.0 mi SSE 3.5 mph - N/A   Clear
12:35 AM 66.2 °F 63.5 °F 91% 30.16 in 7.0 mi Calm Calm - N/A   Clear
12:55 AM 67.1 °F 63.7 °F 89% 30.16 in 7.0 mi South 3.5 mph - N/A   Mostly Cloudy
1:15 AM 66.4 °F 63.5 °F 90% 30.17 in 7.0 mi Calm Calm - N/A   Overcast
1:35 AM 66.6 °F 63.7 °F 90% 30.16 in 7.0 mi Calm Calm - N/A   Overcast
1:55 AM 65.3 °F 63.3 °F 93% 30.16 in 3.0 mi SSE 3.5 mph - N/A   Overcast
2:15 AM 64.6 °F 63.0 °F 94% 30.16 in 0.5 mi Calm Calm - N/A Fog Fog
2:35 AM 66.7 °F 63.7 °F 90% 30.15 in 7.0 mi Calm Calm - N/A   Overcast
2:55 AM 66.2 °F 63.7 °F 92% 30.15 in 5.0 mi Calm Calm - N/A   Overcast
3:15 AM 66.2 °F 63.9 °F 92% 30.15 in 5.0 mi West 4.6 mph - 0.01 in Rain Light Rain
3:35 AM 66.2 °F 64.2 °F 93% 30.15 in 1.8 mi Calm Calm - 0.04 in Rain Light Rain
3:55 AM 65.8 °F 64.0 °F 94% 30.15 in 0.8 mi Calm Calm - 0.05 in Rain Rain
4:15 AM 65.7 °F 63.9 °F 94% 30.14 in 2.5 mi Calm Calm - N/A Rain Rain
4:35 AM 65.8 °F 63.9 °F 93% 30.14 in 2.5 mi Calm Calm - N/A   Drizzle
4:55 AM 66.4 °F 64.4 °F 93% 30.14 in 3.0 mi Calm Calm - 0.01 in Rain Light Rain
5:15 AM 66.4 °F 64.2 °F 93% 30.13 in 4.0 mi Calm Calm - N/A   Light Drizzle
5:35 AM 65.7 °F 63.9 °F 94% 30.14 in 1.2 mi Calm Calm - N/A   Overcast
5:55 AM 66.4 °F 63.7 °F 91% 30.13 in 7.0 mi SW 4.6 mph - N/A   Overcast
6:15 AM 66.6 °F 63.7 °F 90% 30.13 in 7.0 mi SW 4.6 mph - N/A   Overcast
6:35 AM 66.4 °F 63.7 °F 91% 30.13 in 7.0 mi WSW 3.5 mph - N/A   Overcast
6:55 AM 65.8 °F 63.7 °F 93% 30.14 in 3.0 mi West 4.6 mph - N/A   Overcast
7:15 AM 66.7 °F 63.9 °F 90% 30.14 in 7.0 mi SW 4.6 mph - N/A   Overcast
7:35 AM 66.7 °F 63.7 °F 90% 30.14 in 5.0 mi WSW 3.5 mph - N/A   Overcast
7:55 AM 67.1 °F 63.9 °F 89% 30.14 in 5.0 mi SW 4.6 mph - N/A   Overcast
8:15 AM 67.3 °F 64.0 °F 89% 30.14 in 7.0 mi SW 8.1 mph - N/A   Overcast
8:35 AM 66.9 °F 64.4 °F 92% 30.15 in 1.2 mi WSW 4.6 mph - N/A   Overcast
8:55 AM 67.5 °F 64.4 °F 90% 30.15 in 5.0 mi WSW 3.5 mph - N/A   Overcast
9:15 AM 67.6 °F 64.6 °F 90% 30.15 in 5.0 mi WSW 4.6 mph - N/A   Overcast
9:35 AM 68.0 °F 64.6 °F 89% 30.15 in 7.0 mi WSW 4.6 mph - N/A   Overcast
9:55 AM 68.0 °F 65.5 °F 92% 30.16 in 1.8 mi WNW 4.6 mph - N/A   Overcast
10:15 AM 69.8 °F 66.0 °F 88% 30.16 in 7.0 mi West 4.6 mph - N/A   Mostly Cloudy
10:35 AM 70.2 °F 66.6 °F 88% 30.15 in 7.0 mi SW 4.6 mph - N/A   Overcast
10:55 AM 71.4 °F 65.8 °F 82% 30.14 in 10.0 mi South 5.8 mph - N/A   Overcast
11:15 AM 73.0 °F 66.0 °F 79% 30.14 in 10.0 mi SSW 3.5 mph - N/A   Overcast
11:35 AM 72.5 °F 65.1 °F 78% 30.14 in 10.0 mi SSW 4.6 mph - N/A   Overcast
11:55 AM 73.9 °F 66.0 °F 76% 30.13 in 10.0 mi WSW 3.5 mph - N/A   Mostly Cloudy
12:15 PM 75.6 °F 66.2 °F 73% 30.12 in 10.0 mi Calm Calm - N/A   Scattered Clouds
12:35 PM 75.9 °F 65.8 °F 71% 30.12 in 10.0 mi WSW 5.8 mph - N/A   Scattered Clouds
12:55 PM 76.6 °F 65.1 °F 67% 30.12 in 10.0 mi WSW 8.1 mph - N/A   Scattered Clouds
1:15 PM 76.5 °F 64.2 °F 66% 30.11 in 10.0 mi WSW 5.8 mph - N/A   Mostly Cloudy
1:35 PM 76.5 °F 63.7 °F 64% 30.10 in 10.0 mi West 5.8 mph - N/A   Scattered Clouds
1:55 PM 76.8 °F 64.8 °F 66% 30.09 in 10.0 mi West 5.8 mph - N/A   Clear
2:15 PM 76.5 °F 64.6 °F 67% 30.08 in 10.0 mi West 3.5 mph - N/A   Mostly Cloudy
2:35 PM 78.3 °F 65.1 °F 64% 30.07 in 10.0 mi Calm Calm - N/A   Scattered Clouds
2:55 PM 78.3 °F 65.1 °F 64% 30.07 in 10.0 mi SW 5.8 mph - N/A   Clear
3:15 PM 78.1 °F 64.6 °F 63% 30.06 in 10.0 mi SW 3.5 mph - N/A   Mostly Cloudy
3:35 PM 79.7 °F 65.3 °F 61% 30.05 in 10.0 mi WSW 5.8 mph - N/A   Scattered Clouds
3:55 PM 77.5 °F 64.6 °F 64% 30.05 in 10.0 mi SW 5.8 mph - N/A   Scattered Clouds
4:15 PM 79.9 °F 64.8 °F 60% 30.04 in 10.0 mi SW 4.6 mph - N/A   Mostly Cloudy
4:35 PM 79.5 °F 64.2 °F 59% 30.03 in 10.0 mi WSW 5.8 mph - N/A   Clear
4:55 PM 78.6 °F 64.9 °F 63% 30.03 in 10.0 mi WSW 9.2 mph - N/A   Clear
5:15 PM 78.4 °F 64.9 °F 63% 30.01 in 10.0 mi WSW 5.8 mph - N/A   Clear
5:35 PM 77.9 °F 64.0 °F 62% 30.03 in 10.0 mi SW 4.6 mph - N/A   Clear
5:55 PM 77.5 °F 64.2 °F 63% 30.03 in 10.0 mi SW 4.6 mph - N/A   Scattered Clouds
6:15 PM 77.2 °F 63.1 °F 62% 30.03 in 10.0 mi WSW 5.8 mph - N/A   Scattered Clouds
6:35 PM 76.1 °F 63.7 °F 65% 30.03 in 10.0 mi WSW 5.8 mph - N/A   Scattered Clouds
6:55 PM 75.2 °F 63.7 °F 67% 30.02 in 10.0 mi Calm Calm - N/A   Scattered Clouds
7:15 PM 74.3 °F 64.2 °F 71% 30.03 in 10.0 mi South 3.5 mph - N/A   Clear
7:35 PM 73.4 °F 64.4 °F 73% 30.02 in 10.0 mi Calm Calm - N/A   Clear
7:55 PM 72.1 °F 64.4 °F 77% 30.01 in 10.0 mi SSE 3.5 mph - N/A   Clear
8:15 PM 72.0 °F 63.9 °F 76% 30.01 in 10.0 mi South 4.6 mph - N/A   Clear
8:35 PM 71.8 °F 63.7 °F 76% 30.01 in 10.0 mi SSE 5.8 mph - N/A   Clear
8:55 PM 71.6 °F 63.7 °F 76% 30.01 in 10.0 mi South 4.6 mph - N/A   Clear
9:15 PM 71.4 °F 63.5 °F 76% 30.01 in 10.0 mi South 3.5 mph - N/A   Clear
9:35 PM 71.2 °F 63.7 °F 77% 30.03 in 10.0 mi SE 3.5 mph - N/A   Clear
9:55 PM 69.6 °F 64.4 °F 83% 30.02 in 10.0 mi SE 3.5 mph - N/A   Clear
10:15 PM 68.4 °F 64.9 °F 89% 30.01 in 7.0 mi SE 4.6 mph - N/A   Clear
10:35 PM 69.1 °F 64.8 °F 86% 30.00 in 10.0 mi SE 5.8 mph - N/A   Clear
10:55 PM 68.7 °F 64.9 °F 88% 30.00 in 10.0 mi SE 4.6 mph - N/A   Clear
11:15 PM 68.7 °F 64.9 °F 88% 30.00 in 10.0 mi SE 3.5 mph - N/A   Clear
11:35 PM 68.7 °F 64.9 °F 88% 29.99 in 10.0 mi SE 3.5 mph - N/A   Clear
11:55 PM 68.7 °F 64.8 °F 87% 29.99 in 10.0 mi Calm Calm - N/A   Clear